Rogers City, MI

8:40 AM EDT on June 24, 2017 (GMT -0400)
Presque Isle County

Weather History for KPZQ - November, 2012

Change the Weather History Date:

Thursday, November 1, 2012

  Actual Average (KAPN) Record (KAPN)
Temperature  
Mean Temperature 38 °F -  
Max Temperature 41 °F 53 °F 77 °F (1950)
Min Temperature 34 °F 34 °F 19 °F (2010)
Degree Days  
Heating Degree Days 28    
Moisture  
Dew Point 33 °F    
Average Humidity 80    
Maximum Humidity 89    
Minimum Humidity 64    
Precipitation  
Precipitation 0.00 in - - ()
Sea Level Pressure  
Sea Level Pressure 29.65 in    
Wind  
Wind Speed 13 mph (WNW)    
Max Wind Speed 18 mph    
Max Gust Speed 28 mph    
Visibility 7 miles    
Events Rain    
Averages and records for this station are not official NWS values.
T = Trace of Precipitation, MM = Missing Value Source: NWS Daily Summary

Daily Weather History Graph

Daily Weather History Graph

Search for Another Location

Airport or City:

Trip Planner

Search our weather history database for the weather conditions in past years. The results will help you decide how hot, cold, wet, or windy it might be!

Date:

Astronomy

Nov. 01, 2012 Rise Set
Actual Time 8:15 AM EDT 6:21 PM EDT
Civil Twilight 7:44 AM EDT 6:52 PM EDT
Nautical Twilight 7:09 AM EDT 7:27 PM EDT
Astronomical Twilight 6:34 AM EDT 8:01 PM EDT
Moon 8:11 PM EDT (11/1) 10:53 AM EDT (11/1)
Length of Visible Light 11h 08m
Length of Day
10h 06m
Waning Gibbous, 93% of the Moon is Illuminated
Nov 1
Waning Gibbous
Nov 6
Last Quarter
Nov 13
New
Nov 20
First Quarter
Nov 28
Full

Hourly Weather History & Observations

Time (EDT) Temp. Windchill Dew Point Humidity Pressure Visibility Wind Dir Wind Speed Gust Speed Precip Events Conditions
12:15 AM 38.5 °F 30.7 °F 34.0 °F 84% 29.62 in 5.0 mi WNW 12.7 mph 23.0 mph N/A Rain Light Rain
12:34 AM 37.8 °F 29.8 °F 34.0 °F 86% 29.62 in 3.0 mi WNW 12.7 mph 23.0 mph N/A Rain Light Rain
12:54 AM 37.8 °F 29.8 °F 34.2 °F 87% 29.62 in 4.0 mi WNW 12.7 mph 21.9 mph N/A Rain Light Rain
1:14 AM 37.6 °F 28.4 °F 34.0 °F 87% 29.62 in 3.0 mi WNW 16.1 mph 23.0 mph N/A Rain Light Rain
1:34 AM 37.6 °F 29.1 °F 34.0 °F 87% 29.61 in 5.0 mi NW 13.8 mph 21.9 mph N/A Rain Light Rain
1:55 AM 37.8 °F 29.4 °F 34.2 °F 87% 29.61 in 3.0 mi NW 13.8 mph 19.6 mph N/A Rain Light Rain
2:14 AM 37.9 °F 30.9 °F 34.5 °F 87% 29.61 in 3.0 mi WNW 10.4 mph 16.1 mph N/A Rain Light Rain
2:35 AM 37.4 °F 30.3 °F 33.8 °F 87% 29.60 in 4.0 mi WNW 10.4 mph 17.3 mph N/A   Drizzle
2:54 AM 36.9 °F 29.1 °F 33.8 °F 89% 29.61 in 5.0 mi WNW 11.5 mph 17.3 mph N/A Rain Light Rain
3:14 AM 36.9 °F 30.1 °F 33.8 °F 89% 29.61 in 3.0 mi WNW 9.2 mph 16.1 mph N/A Rain Light Rain
3:35 AM 37.0 °F 30.4 °F 34.0 °F 89% 29.60 in 7.0 mi NW 9.2 mph - N/A   Overcast
3:54 AM 37.8 °F 29.4 °F 33.8 °F 86% 29.60 in 7.0 mi NW 13.8 mph 25.3 mph N/A   Overcast
4:14 AM 37.9 °F 28.9 °F 33.8 °F 85% 29.60 in 7.0 mi NW 16.1 mph 24.2 mph N/A   Overcast
4:35 AM 38.3 °F 30.1 °F 33.6 °F 83% 29.60 in 10.0 mi NW 13.8 mph 23.0 mph N/A   Overcast
4:54 AM 38.5 °F 30.3 °F 33.4 °F 82% 29.60 in 10.0 mi WNW 13.8 mph 27.6 mph N/A   Overcast
5:14 AM 38.8 °F 32.6 °F 33.4 °F 81% 29.60 in 10.0 mi WNW 9.2 mph 24.2 mph N/A   Overcast
5:35 AM 38.3 °F 30.5 °F 34.2 °F 85% 29.60 in 3.0 mi WNW 12.7 mph 20.7 mph N/A Rain Rain
5:54 AM 38.3 °F 30.5 °F 34.3 °F 86% 29.60 in 3.0 mi WNW 12.7 mph - N/A   Drizzle
6:14 AM 37.9 °F 29.2 °F 34.2 °F 86% 29.60 in 10.0 mi WNW 15.0 mph 21.9 mph N/A   Overcast
6:35 AM 38.3 °F 31.4 °F 34.0 °F 84% 29.60 in 10.0 mi WNW 10.4 mph 23.0 mph N/A   Overcast
6:54 AM 38.3 °F 30.5 °F 34.2 °F 85% 29.60 in 4.0 mi WNW 12.7 mph 20.7 mph N/A Rain Light Rain
7:15 AM 38.3 °F 30.5 °F 34.0 °F 84% 29.60 in 7.0 mi WNW 12.7 mph 18.4 mph N/A   Light Drizzle
7:34 AM 38.3 °F 31.4 °F 34.2 °F 85% 29.61 in 7.0 mi WNW 10.4 mph 17.3 mph N/A Rain Light Rain
7:54 AM 38.8 °F 30.0 °F 34.3 °F 84% 29.61 in 10.0 mi NW 16.1 mph 24.2 mph N/A   Overcast
8:15 AM 39.6 °F 32.1 °F 34.0 °F 80% 29.61 in 10.0 mi WNW 12.7 mph 25.3 mph N/A   Overcast
8:34 AM 39.0 °F 31.4 °F 34.2 °F 83% 29.62 in 10.0 mi WNW 12.7 mph 19.6 mph N/A   Overcast
8:54 AM 38.5 °F 29.9 °F 34.7 °F 86% 29.62 in 3.0 mi WNW 15.0 mph 21.9 mph N/A Rain Light Rain
9:15 AM 38.5 °F 30.7 °F 34.9 °F 87% 29.62 in 2.0 mi WNW 12.7 mph 18.4 mph N/A Rain Light Rain
9:34 AM 38.5 °F 31.6 °F 35.1 °F 87% 29.63 in 2.5 mi WNW 10.4 mph 18.4 mph N/A Rain Rain
9:54 AM 38.5 °F 30.7 °F 34.9 °F 87% 29.63 in 3.0 mi WNW 12.7 mph 19.6 mph N/A   Drizzle
10:14 AM 38.7 °F 30.5 °F 35.2 °F 87% 29.64 in 2.0 mi WNW 13.8 mph 19.6 mph N/A Rain Light Rain
10:34 AM 39.2 °F 30.8 °F 35.4 °F 86% 29.64 in 2.5 mi WNW 15.0 mph 20.7 mph N/A Rain Light Rain
10:55 AM 39.2 °F 32.5 °F 34.9 °F 84% 29.64 in 5.0 mi WNW 10.4 mph 17.3 mph N/A Rain Rain
11:14 AM 39.2 °F 32.0 °F 34.7 °F 84% 29.64 in 5.0 mi WNW 11.5 mph 19.6 mph N/A Rain Light Rain
11:34 AM 39.2 °F 31.6 °F 34.0 °F 82% 29.64 in 10.0 mi WNW 12.7 mph 23.0 mph N/A   Overcast
11:55 AM 39.2 °F 30.8 °F 33.8 °F 81% 29.64 in 7.0 mi WNW 15.0 mph 23.0 mph N/A Rain Light Rain
12:14 PM 39.2 °F 32.0 °F 33.3 °F 79% 29.65 in 7.0 mi WNW 11.5 mph 23.0 mph N/A Rain Light Rain
12:34 PM 40.3 °F 32.2 °F 34.0 °F 78% 29.65 in 7.0 mi West 15.0 mph 20.7 mph N/A   Overcast
12:55 PM 40.6 °F 34.8 °F 33.4 °F 75% 29.63 in 10.0 mi West 9.2 mph 20.7 mph N/A   Overcast
1:13 PM 40.1 °F 31.3 °F 32.2 °F 73% 29.64 in 10.0 mi WNW 17.3 mph 25.3 mph N/A   Overcast
1:35 PM 40.3 °F 31.9 °F 32.9 °F 75% 29.63 in 10.0 mi WNW 16.1 mph 24.2 mph N/A   Overcast
1:54 PM 40.6 °F 32.0 °F 33.1 °F 74% 29.64 in 10.0 mi WNW 17.3 mph 23.0 mph N/A Rain Light Rain
2:15 PM 40.3 °F 33.4 °F 33.1 °F 75% 29.64 in 10.0 mi West 11.5 mph 23.0 mph N/A   Light Drizzle
2:34 PM 41.0 °F 33.9 °F 32.7 °F 72% 29.64 in 10.0 mi WNW 12.7 mph 20.7 mph N/A   Overcast
2:54 PM 40.5 °F 32.1 °F 32.0 °F 72% 29.64 in 10.0 mi WNW 16.1 mph 26.5 mph N/A Rain Light Rain
3:14 PM 39.9 °F 32.1 °F 32.9 °F 76% 29.65 in 10.0 mi WNW 13.8 mph 25.3 mph N/A Rain Light Rain
3:34 PM 39.9 °F 32.5 °F 32.4 °F 74% 29.65 in 7.0 mi WNW 12.7 mph 24.2 mph N/A   Light Drizzle
3:55 PM 40.3 °F 32.2 °F 31.8 °F 72% 29.65 in 10.0 mi WNW 15.0 mph 24.2 mph N/A   Overcast
4:14 PM 41.4 °F 33.3 °F 31.1 °F 67% 29.65 in 10.0 mi WNW 16.1 mph 24.2 mph N/A   Overcast
4:34 PM 41.0 °F 34.7 °F 31.3 °F 68% 29.66 in 10.0 mi West 10.4 mph 23.0 mph N/A   Overcast
4:54 PM 40.6 °F 32.7 °F 29.7 °F 65% 29.66 in 10.0 mi West 15.0 mph 25.3 mph N/A   Overcast
5:14 PM 40.8 °F 32.3 °F 29.3 °F 64% 29.66 in 10.0 mi West 17.3 mph 23.0 mph N/A   Overcast
5:35 PM 39.6 °F 30.6 °F 29.8 °F 68% 29.67 in 10.0 mi WNW 17.3 mph 25.3 mph N/A Rain Light Rain
5:54 PM 39.2 °F 30.8 °F 30.9 °F 72% 29.68 in 10.0 mi NW 15.0 mph 24.2 mph N/A Rain Light Rain
6:14 PM 38.1 °F 31.2 °F 32.0 °F 79% 29.68 in 7.0 mi WNW 10.4 mph 19.6 mph N/A Rain Light Rain
6:35 PM 38.3 °F 31.9 °F 32.0 °F 78% 29.69 in 10.0 mi WNW 9.2 mph 16.1 mph N/A   Overcast
6:54 PM 38.5 °F 30.7 °F 31.8 °F 77% 29.69 in 10.0 mi WNW 12.7 mph 19.6 mph N/A Rain Light Rain
7:15 PM 38.3 °F 32.5 °F 32.0 °F 78% 29.69 in 10.0 mi West 8.1 mph 21.9 mph N/A   Overcast
7:34 PM 38.1 °F 30.2 °F 32.0 °F 79% 29.71 in 7.0 mi WNW 12.7 mph 17.3 mph N/A Rain Rain
7:54 PM 35.6 °F 25.2 °F 32.0 °F 87% 29.71 in 3.0 mi NW 18.4 mph 25.3 mph N/A Rain Rain
8:14 PM 35.8 °F 27.8 °F 32.0 °F 86% 29.72 in 2.5 mi WNW 11.5 mph 25.3 mph N/A Rain Light Rain
8:34 PM 36.1 °F 28.7 °F 32.4 °F 86% 29.72 in 7.0 mi WNW 10.4 mph - N/A Rain Light Rain
8:54 PM 36.5 °F 29.7 °F 32.2 °F 84% 29.72 in 10.0 mi WNW 9.2 mph 16.1 mph N/A Rain Light Rain
9:14 PM 34.7 °F 26.9 °F 31.1 °F 87% 29.72 in 1.5 mi WNW 10.4 mph 19.6 mph N/A Rain Light Rain
9:35 PM 35.6 °F 28.6 °F 31.8 °F 86% 29.73 in 10.0 mi WNW 9.2 mph 21.9 mph N/A   Overcast
9:54 PM 36.0 °F 27.1 °F 31.1 °F 82% 29.73 in 10.0 mi NW 13.8 mph 19.6 mph N/A   Overcast
10:14 PM 36.5 °F 28.7 °F 29.8 °F 77% 29.74 in 10.0 mi NW 11.5 mph 21.9 mph N/A   Overcast
10:35 PM 36.5 °F 27.8 °F 29.1 °F 75% 29.74 in 10.0 mi NNW 13.8 mph 23.0 mph N/A   Overcast
10:54 PM 36.5 °F 28.7 °F 28.4 °F 72% 29.75 in 10.0 mi NW 11.5 mph 23.0 mph N/A   Overcast
11:14 PM 36.3 °F 27.5 °F 27.0 °F 69% 29.75 in 10.0 mi NW 13.8 mph 24.2 mph N/A   Overcast
11:35 PM 36.0 °F 27.5 °F 26.6 °F 69% 29.76 in 10.0 mi NNW 12.7 mph 17.3 mph N/A   Overcast
11:54 PM 35.8 °F 26.9 °F 24.6 °F 64% 29.76 in 10.0 mi NNW 13.8 mph 21.9 mph N/A   Overcast